Location: La Silve
(44.2414°N, 5.8889°E)
Time: 12:11:42
(UTC+00:00)

Cosmos 1515 Rocket - Pass Details

Date: 01 December 2020
Orbit: 605 x 631 km, 82.5° (Epoch: 25 January)

Event Time Altitude Azimuth Distance (km) Brightness Sun altitude
Rises 17:13:10 0° 177° (S) 2,867 7.2 -13.0°
Reaches altitude 10° 17:15:23 10° 174° (S) 1,971 6.3 -13.3°
Maximum altitude 17:19:40 60° 95° (E) 711 3.6 -14.1°
Drops below altitude 10° 17:24:03 10° 16° (NNE) 2,003 5.9 -14.8°
Enters shadow 17:25:11 - 14° (NNE) 2,459 6.3 -15.0°
